Hourly Data Report for November 19, 2017

SHEARWATER RCS
NOVA SCOTIA

44°37'47.000" N
63°30'48.000" W
24.00 m
8205092
71264
AAW

Download Data

Hourly Data (November 2017)
Hourly Data Report for November 19, 2017
TIME
LST
Temp Definition
°C
Dew Point Definition
°C
Rel Hum Definition
%
Precip. Amount Definition
mm

Wind Dir Definition
10's deg

Wind Spd Definition
km/h
Visibility Definition
km
Stn Press Definition
kPa
Hmdx Definition


Wind Chill Definition


Weather Definition


00:00 2.9 -0.2 80 0.0 22 10   100.67     LegendNANA
01:00 3.1 0.1 81 0.0 27 2   100.63     LegendNANA
02:00 2.9 0.4 84 0.0 7 4   100.58     LegendNANA
03:00 3.2 0.8 84 0.0 6 6   100.56     LegendNANA
04:00 3.3 1.0 85 0.0 7 9   100.43     LegendNANA
05:00 7.4 4.5 82 0.0 13 11   100.34     LegendNANA
06:00 8.2 5.6 84 0.0 12 12   100.18     LegendNANA
07:00 8.6 6.4 86 0.0 13 16   100.09     LegendNANA
08:00 9.5 7.7 89 0.9 14 18   100.07     LegendNANA
09:00 10.8 9.1 89 1.0 15 19   99.95     LegendNANA
10:00 11.4 10.0 91 1.2 16 27   99.78     LegendNANA
11:00 12.5 11.3 92 0.0 16 30   99.64     LegendNANA
12:00 13.1 11.8 92 0.0 17 24   99.51     LegendNANA
13:00 13.7 12.4 92 0.2 18 29   99.37     LegendNANA
14:00 13.6 12.4 93 0.0 17 24   99.22     LegendNANA
15:00 13.9 12.8 93 0.0 17 32   99.07     LegendNANA
16:00 14.2 13.1 93 1.2 18 34   98.97     LegendNANA
17:00 14.4 13.6 95 8.1 17 40   98.89     LegendNANA
18:00 13.9 13.2 95 1.7 17 33   98.72     LegendNANA
19:00 14.7 14.0 95 2.4 20 31   98.72     LegendNANA
20:00 14.2 12.6 90 0.2 21 29   98.68     LegendNANA
21:00 13.1 10.9 87 0.0 21 32   98.67     LegendNANA
22:00 11.6 9.3 86 0.0 22 27   98.69     LegendNANA
23:00 10.4 7.0 79 0.0 23 29   98.76     LegendNANA

Notes on Data Quality.

Legend

  • E = Estimated
  • M = Missing
  • NA = Not Available*
  • [empty] = Indicates an unobserved value
Date modified: